Flag for Isle of Man Weather past 2 weeks in Ramsey, Isle of Man

Now
55 °F

Passing clouds.


Feels Like: 52 °F
Forecast: 56 / 60 °F
Wind: 12 mph from South

Location: Isle Of Man / Ronaldsway Airport

Current Time: Jul 6, 2015 at 8:56:47 AM

Latest Report: Jul 6, 2015 at 7:50 AM


Visibility: N/A

Pressure: 29.98 "Hg

Humidity: 94%

Dew point: 54 °F

Location of RamseyLocation

Historic Weather in Ramsey — Graph

°F

Ramsey temperature yesterday

Maximum temperature yesterday: 61 °F (at 9:50 AM)
Minimum temperature yesterday: 54 °F (at 9:50 PM)
Average temperature yesterday: 57 °F

Past Weeks' High & Low Weather Summary

 TemperatureHumidityPressure
High72 °F (Jun 30, 5:20 PM)100% (Jun 25, 3:50 AM)30.27 "Hg (Jun 25, 3:50 AM)
Low50 °F (Jun 22, 2:50 AM)52% (Jun 22, 2:20 PM)29.77 "Hg (Jul 1, 8:50 AM)
Average58 °F85%29.99 "Hg
* Reported Jun 21 7:20 AM — Jul 6 7:50 AM, Ramsey, Weather by CustomWeather, © 2015

Note: Actual official high and low records may vary slightly from our data, if they occured in-between our weather recording intervals... More about our weather records

Advertising

Ramsey weather history for previous 24 hours

 ConditionsComfort  
Time TempWeatherWind HumidityBarometerVisibility
7:50 AM
Mon, Jul 6
55 °FPassing clouds.12 mph94%29.98 "HgN/A
7:20 AM55 °FScattered clouds.8 mph94%29.98 "HgN/A
6:50 AM55 °FPassing clouds.8 mph94%29.98 "HgN/A
6:20 AM55 °FScattered clouds.5 mph94%29.95 "HgN/A
5:50 AM54 °FPassing clouds.2 mph94%29.95 "HgN/A
5:20 AM54 °FPassing clouds.3 mph94%29.95 "HgN/A
4:50 AM55 °FPassing clouds.2 mph88%29.95 "HgN/A
3:50 AM55 °FPassing clouds.5 mph88%29.95 "HgN/A
2:50 AM55 °FPassing clouds.9 mph94%29.95 "HgN/A
12:50 AM55 °FClear.2 mph88%29.95 "Hg10 mi
11:50 PM
Sun, Jul 5
54 °FPassing clouds.5 mph94%29.95 "HgN/A
10:50 PM54 °FPassing clouds.3 mph100%29.95 "HgN/A
9:50 PM54 °FPassing clouds.8 mph94%29.92 "HgN/A
9:20 PM55 °FPassing clouds.6 mph94%29.92 "HgN/A
8:50 PM55 °FPassing clouds.8 mph88%29.92 "HgN/A
8:20 PM57 °FPassing clouds.8 mph82%29.92 "HgN/A
7:50 PM57 °FPassing clouds.9 mph82%29.92 "HgN/A
7:20 PM57 °FPassing clouds.9 mph82%29.89 "HgN/A
6:50 PM57 °FPassing clouds.9 mph88%29.89 "HgN/A
6:20 PM59 °FPassing clouds.13 mph82%29.92 "HgN/A
5:50 PM57 °FPassing clouds.12 mph88%29.92 "HgN/A
5:20 PM57 °FPassing clouds.13 mph88%29.92 "HgN/A
4:50 PM57 °FPassing clouds.13 mph88%29.92 "HgN/A
4:20 PM59 °FPassing clouds.10 mph82%29.92 "HgN/A
3:50 PM59 °FPassing clouds.13 mph88%29.92 "HgN/A
3:20 PM59 °FScattered clouds.10 mph88%29.92 "HgN/A
2:50 PM59 °FPartly sunny.10 mph88%29.92 "HgN/A
2:20 PM59 °FPassing clouds.8 mph88%29.92 "HgN/A
1:50 PM57 °FPassing clouds.8 mph94%29.92 "HgN/A
1:20 PM59 °FPassing clouds.10 mph88%29.95 "HgN/A
12:50 PM59 °FPassing clouds.12 mph88%29.95 "HgN/A
12:20 PM59 °FPassing clouds.9 mph88%29.95 "HgN/A
11:50 AM61 °FMixture of precip. Scattered clouds.10 mph77%29.95 "HgN/A
11:20 AM59 °FScattered clouds.10 mph82%29.95 "HgN/A
10:50 AM59 °FPassing clouds.12 mph82%29.95 "HgN/A
10:20 AM61 °FPartly sunny.12 mph77%29.98 "HgN/A
9:50 AM61 °FScattered clouds.13 mph77%29.98 "HgN/A
9:20 AM59 °FScattered clouds.13 mph88%29.98 "HgN/A
8:50 AM57 °FScattered clouds.12 mph94%29.98 "HgN/A
8:20 AM57 °FScattered clouds.12 mph94%29.98 "HgN/A
Weather by CustomWeather, © 2015

See weather overviewHow to use our weather pages